Location: Bismarck
(46.7731°N, 100.8200°W)
Time: 07:18:21
(UTC-06:00)

Amateur Radio Satellites - All Passes

Search period start: 23 November 2014 06:48
Search period end: 24 November 2014 06:48
Location: Bismarck, 46.7731°N, 100.8200°W

Satellite Date Start Highest point End Downlink Frequencies (MHz)
Time Altitude Azimuth
Cubesat XI-IV 23 Nov 06:50:19 06:55:31 51° 100° (E) 07:00:40 437.490
SO-50 23 Nov 06:59:25 07:03:14 25° 324° (NW) 07:07:09 436.795
CUBESAT XI-V 23 Nov 07:01:52 07:06:30 56° 260° (W) 07:11:11 437.345
BEESAT 3 23 Nov 07:25:12 07:27:54 17° 249° (WSW) 07:30:34 437.485
ISS 23 Nov 07:25:48 07:28:57 42° 215° (SW) 07:32:06 145.825
CUTE-I 23 Nov 07:32:38 07:37:58 74° 287° (WNW) 07:43:15 437.470
BEESAT 2 23 Nov 07:38:25 07:40:37 14° 250° (WSW) 07:42:48 435.950
STRAND 1 23 Nov 07:55:09 07:59:02 21° 268° (W) 08:02:56 437.568
AIST 1 23 Nov 07:55:51 08:00:14 68° 264° (W) 08:04:33
AIST 2 23 Nov 07:58:11 08:01:03 18° 249° (WSW) 08:03:54 435.215
JAS-2 23 Nov 08:09:06 08:14:21 22° 308° (NW) 08:19:15 435.910
AO-7 23 Nov 08:14:42 08:19:09 16° 321° (NW) 08:23:36 29.400- 29.500
HO-68 23 Nov 08:19:02 08:23:39 18° 88° (E) 08:28:13 435.675
O/OREOS (USA 219) 23 Nov 08:22:14 08:26:14 31° 305° (NW) 08:30:15 437.305
GONETS M04 23 Nov 08:24:10 08:32:11 42° 86° (E) 08:40:14
Cubesat XI-IV 23 Nov 08:30:58 08:35:19 26° 298° (WNW) 08:39:39 437.490
CUTE 1.7 & AOD 2 23 Nov 08:38:41 08:41:05 15° 90° (E) 08:43:28 437.475
SO-50 23 Nov 08:45:02 08:45:29 10° 348° (NNW) 08:45:57 436.795
BRITE-PL 23 Nov 08:46:20 08:48:52 16° 90° (E) 08:51:23 437.365/2234.400
SEEDS 23 Nov 09:14:42 09:18:27 29° 95° (E) 09:22:12 437.485
CUTE-I 23 Nov 09:14:47 09:17:09 13° 307° (NW) 09:19:30 437.470
POLYITAN 1 23 Nov 09:21:27 09:23:41 14° 60° (ENE) 09:25:54 437.675
TIGRISAT 23 Nov 09:23:58 09:27:00 20° 63° (ENE) 09:30:04 435.000
DX 1 23 Nov 09:24:01 09:26:07 13° 89° (E) 09:28:12 434.975-435.025
QB50P2 23 Nov 09:24:31 09:26:57 15° 60° (ENE) 09:29:23 145.880/145.840
DUCHIFAT 1 23 Nov 09:32:11 09:34:59 17° 62° (ENE) 09:37:47 145.980
UNISAT 6 23 Nov 09:35:19 09:38:49 25° 65° (ENE) 09:42:19 437.425
AAUSAT CUBESAT 2 23 Nov 09:37:43 09:41:41 38° 97° (E) 09:45:39 437.432
CANX-2 23 Nov 09:38:01 09:42:18 64° 101° (E) 09:46:33 2200.000
DOVE 4 23 Nov 09:42:46 09:46:32 33° 97° (E) 09:50:21 437.250
ZACube-1 23 Nov 09:49:48 09:51:34 12° 89° (E) 09:53:20 437.345
NANOSAT C BR1 23 Nov 09:50:13 09:53:44 25° 66° (ENE) 09:57:14 145.865
COMPASS 1 23 Nov 09:50:42 09:54:54 60° 101° (E) 09:59:06 437.405
DELFI C3 23 Nov 09:58:42 10:02:19 28° 95° (E) 10:05:54 145.870
QB50P1 23 Nov 09:59:22 10:03:08 31° 67° (ENE) 10:06:54 145.935-145.965
ANTELSAT 23 Nov 10:02:58 10:07:04 46° 71° (ENE) 10:11:10 437.575/2403.000
AISAT 23 Nov 10:04:49 10:06:29 12° 88° (E) 10:08:08 437.250
HO-68 23 Nov 10:05:07 10:12:21 87° 107° (ESE) 10:19:32 435.675
GOMX 1 23 Nov 10:10:27 10:14:38 87° 103° (ESE) 10:18:49 467.674
CUTE 1.7 & AOD 2 23 Nov 10:13:11 10:17:25 60° 287° (WNW) 10:21:38 437.475
GONETS M04 23 Nov 10:20:20 10:28:50 51° 288° (WNW) 10:37:26
POPSAT HIP 1 23 Nov 10:23:16 10:27:26 53° 72° (ENE) 10:31:36 437.405
BRITE-PL 23 Nov 10:23:43 10:27:46 49° 288° (WNW) 10:31:46 437.365/2234.400
FUNcube-1 23 Nov 10:24:15 10:27:52 27° 95° (E) 10:31:32 145.935
BUGSAT 1 23 Nov 10:25:42 10:29:48 48° 71° (ENE) 10:33:54 437.445
UKube-1 23 Nov 10:26:00 10:30:17 55° 101° (E) 10:34:32 .
SO-50 23 Nov 10:27:31 10:28:20 10° 13° (NNE) 10:29:09 436.795
CUBEBUG 2 23 Nov 10:35:41 10:39:46 48° 99° (E) 10:43:54 437.445
Oscar 11 23 Nov 10:39:36 10:43:59 89° 104° (ESE) 10:48:20 145.826/435.025
CINEMA 3 23 Nov 10:41:06 10:45:18 86° 104° (ESE) 10:49:34 145.822/145.860
UWE-3 23 Nov 10:42:19 10:46:25 50° 100° (E) 10:50:34 435.000/436.395/437.385
SEEDS 23 Nov 10:50:34 10:54:16 29° 293° (WNW) 10:57:58 437.485
POLYITAN 1 23 Nov 10:54:51 10:59:07 71° 258° (WSW) 11:03:23 437.675
QB50P2 23 Nov 10:58:09 11:02:24 66° 258° (WSW) 11:06:39 145.880/145.840
DX 1 23 Nov 10:58:30 11:02:51 68° 287° (WNW) 11:07:09 434.975-435.025
TIGRISAT 23 Nov 10:59:22 11:03:29 46° 261° (W) 11:07:36 435.000
ESTCUBE 1 23 Nov 11:03:22 11:06:39 19° 92° (E) 11:09:55 437.505/2401.250
SHINDAISAT 23 Nov 11:05:29 11:06:21 13° 119° (ESE) 11:07:13 437.305
DUCHIFAT 1 23 Nov 11:06:18 11:10:29 54° 260° (W) 11:14:40 145.980
UNISAT 6 23 Nov 11:11:35 11:15:30 34° 263° (W) 11:19:25 437.425
AAUSAT CUBESAT 2 23 Nov 11:13:52 11:17:11 23° 295° (WNW) 11:20:30 437.432
VELOX 1 23 Nov 11:14:53 11:19:17 59° 101° (E) 11:23:38 145.980
CANX-2 23 Nov 11:15:16 11:17:46 15° 299° (WNW) 11:20:16 2200.000
DOVE 4 23 Nov 11:20:52 11:24:14 24° 294° (WNW) 11:27:37 437.250
ZACube-1 23 Nov 11:24:14 11:28:25 69° 286° (WNW) 11:32:39 437.345
NANOSAT C BR1 23 Nov 11:25:36 11:29:29 34° 263° (W) 11:33:24 145.865
COMPASS 1 23 Nov 11:27:37 11:30:13 16° 298° (WNW) 11:32:48 437.405
HUMSAT D 23 Nov 11:30:05 11:34:15 86° 103° (ESE) 11:38:26 437.325/437.525
DELFI C3 23 Nov 11:34:01 11:37:35 29° 293° (WNW) 11:41:09 145.870
QB50P1 23 Nov 11:35:22 11:39:02 28° 265° (W) 11:42:43 145.935-145.965
50 SAT 23 Nov 11:39:02 11:43:07 89° 290° (WNW) 11:47:11 437.505
AISAT 23 Nov 11:39:15 11:43:42 78° 286° (WNW) 11:48:06 437.250
ANTELSAT 23 Nov 11:41:09 11:44:09 18° 268° (W) 11:47:08 437.575/2403.000
GOMX 1 23 Nov 11:51:11 11:52:08 11° 302° (WNW) 11:53:05 467.674
HO-68 23 Nov 11:53:53 11:59:14 23° 308° (NW) 12:04:34 435.675
Oscar 19 23 Nov 11:54:34 11:57:57 18° 58° (ENE) 12:01:19 437.125/150
FUNcube-1 23 Nov 12:00:34 12:04:14 30° 292° (WNW) 12:07:57 145.935
POPSAT HIP 1 23 Nov 12:01:00 12:03:40 16° 269° (W) 12:06:22 437.405
BUGSAT 1 23 Nov 12:02:37 12:05:34 18° 268° (W) 12:08:31 437.445
UKube-1 23 Nov 12:03:08 12:06:04 18° 299° (WNW) 12:09:00 .
CUBEBUG 1 23 Nov 12:03:23 12:07:47 72° 102° (ESE) 12:12:07 437.445
TISAT 1 23 Nov 12:03:45 12:06:52 20° 93° (E) 12:09:58 437.305
SPROUT 23 Nov 12:04:18 12:07:17 18° 91° (E) 12:10:15 437.525
SO-50 23 Nov 12:06:31 12:10:34 26° 37° (NE) 12:14:40 436.795
CUBEBUG 2 23 Nov 12:13:16 12:16:11 19° 297° (WNW) 12:19:07 437.445
Oscar 11 23 Nov 12:17:53 12:19:29 12° 302° (WNW) 12:21:05 145.826/435.025
UWE-3 23 Nov 12:19:47 12:22:39 18° 297° (WNW) 12:25:33 435.000/436.395/437.385
CINEMA 3 23 Nov 12:20:40 12:21:55 11° 301° (WNW) 12:23:11 145.822/145.860
GONETS M04 23 Nov 12:25:05 12:28:20 12° 314° (NW) 12:31:36
ESTCUBE 1 23 Nov 12:39:25 12:43:50 50° 289° (WNW) 12:48:12 437.505/2401.250
ITAMSAT 1 23 Nov 12:40:43 12:44:23 20° 59° (ENE) 12:48:03 435.822/435.867
YUBILEINY 23 Nov 12:40:58 12:47:28 22° 58° (ENE) 12:53:54 435.215
VELOX 1 23 Nov 12:52:32 12:55:26 17° 299° (WNW) 12:58:20 145.980
Gurwin Techsat 1B 23 Nov 12:56:20 12:59:32 16° 57° (ENE) 13:02:45 435.225
ITUPSAT 1 23 Nov 13:05:30 13:08:15 15° 89° (E) 13:10:59 437.325
HUMSAT D 23 Nov 13:08:09 13:09:27 11° 301° (WNW) 13:10:45 437.325/437.525
CUSAT 1 23 Nov 13:10:24 13:11:42 13° 92° (E) 13:12:59 437.405
SWISSCUBE 23 Nov 13:16:57 13:20:36 21° 92° (E) 13:24:13 437.505
50 SAT 23 Nov 13:17:08 13:17:47 10° 302° (WNW) 13:18:27 437.505
AISAT 23 Nov 13:18:41 13:19:34 11° 304° (NW) 13:20:27 437.250
DANDE 23 Nov 13:22:55 13:24:43 16° 94° (E) 13:26:25 436.750
Oscar 19 23 Nov 13:31:37 13:36:43 74° 257° (WSW) 13:41:52 437.125/150
TISAT 1 23 Nov 13:38:55 13:42:55 42° 290° (WNW) 13:46:53 437.305
SPROUT 23 Nov 13:39:31 13:43:39 47° 289° (WNW) 13:47:45 437.525
AO-7 23 Nov 13:40:30 13:46:04 20° 44° (NE) 13:51:38 29.400- 29.500
CUBEBUG 1 23 Nov 13:41:14 13:43:37 15° 301° (WNW) 13:45:59 437.445
HORYU 2 23 Nov 13:43:09 13:45:47 16° 60° (ENE) 13:48:27 437.375
SO-50 23 Nov 13:46:43 13:51:33 67° 237° (WSW) 13:56:24 436.795
BEESAT 23 Nov 13:48:07 13:52:36 38° 97° (E) 13:57:03 436.000
AUBIESAT-1 23 Nov 13:54:30 13:59:17 50° 105° (ESE) 14:04:01 437.475
M-CUBED/EXP-1 PRIME 23 Nov 13:57:36 14:02:29 58° 106° (ESE) 14:07:19 437.505
ITAMSAT 1 23 Nov 14:18:09 14:23:21 69° 257° (WSW) 14:28:35 435.822/435.867
STARS 23 Nov 14:27:44 14:30:08 14° 90° (E) 14:32:31 437.465
Gurwin Techsat 1B 23 Nov 14:33:29 14:38:48 86° 255° (WSW) 14:44:10 435.225
YUBILEINY 23 Nov 14:36:52 14:45:39 88° 82° (E) 14:54:21 435.215
ITUPSAT 1 23 Nov 14:41:52 14:46:41 71° 287° (WNW) 14:51:27 437.325
CUSAT 1 23 Nov 14:52:53 14:54:43 16° 289° (WNW) 14:56:30 437.405
SWISSCUBE 23 Nov 14:54:06 14:58:45 50° 290° (WNW) 15:03:22 437.505
JAS-2 23 Nov 14:55:12 14:59:43 17° 48° (NE) 15:04:15 435.910
RS-15 23 Nov 14:58:33 15:02:27 13° 93° (E) 15:06:21 29.354- 29.394
KKS-1 23 Nov 15:00:59 15:05:15 44° 99° (E) 15:09:29 437.445
DANDE 23 Nov 15:06:32 15:08:08 14° 289° (WNW) 15:09:41 436.750
O/OREOS (USA 219) 23 Nov 15:11:10 15:13:55 16° 47° (NE) 15:16:38 437.305
HORYU 2 23 Nov 15:17:34 15:21:58 67° 258° (WSW) 15:26:25 437.375
BEESAT 23 Nov 15:26:13 15:30:20 29° 295° (WNW) 15:34:25 436.000
AO-7 23 Nov 15:29:15 15:37:28 70° 66° (ENE) 15:45:44 29.400- 29.500
AUBIESAT-1 23 Nov 15:29:58 15:33:59 26° 302° (WNW) 15:38:00 437.475
M-CUBED/EXP-1 PRIME 23 Nov 15:33:19 15:37:09 23° 303° (WNW) 15:41:00 437.505
STARS 23 Nov 16:02:42 16:07:04 64° 287° (WNW) 16:11:24 437.465
MaSat-1 23 Nov 16:08:32 16:11:16 32° 114° (ESE) 16:13:47 437.345
Gurwin Techsat 1B 23 Nov 16:17:23 16:19:34 12° 274° (W) 16:21:45 435.225
PHONESAT 2.4 23 Nov 16:18:36 16:20:12 12° 153° (SSE) 16:21:48 2401.200-2431.200
ITUPSAT 1 23 Nov 16:22:26 16:23:42 11° 306° (NW) 16:24:58 437.325
YUBILEINY 23 Nov 16:35:12 16:41:16 22° 283° (WNW) 16:47:19 435.215
JAS-2 23 Nov 16:35:45 16:43:14 62° 69° (ENE) 16:50:58 435.910
Cubesat XI-IV 23 Nov 16:37:36 16:41:12 19° 58° (ENE) 16:44:49 437.490
KKS-1 23 Nov 16:38:13 16:41:39 22° 297° (WNW) 16:45:03 437.445
VERMONT LUNAR 23 Nov 16:39:45 16:42:19 18° 160° (SSE) 16:44:54 437.305
O/OREOS (USA 219) 23 Nov 16:49:25 16:53:55 79° 247° (WSW) 16:58:23 437.305
RS-15 23 Nov 17:01:33 17:12:10 59° 116° (ESE) 17:22:47 29.354- 29.394
CUTE-I 23 Nov 17:18:10 17:23:03 37° 66° (ENE) 17:27:56 437.470
MOZHAYETS 4 23 Nov 17:22:15 17:26:41 41° 98° (E) 17:31:04
AO-7 23 Nov 17:23:54 17:30:53 30° 266° (W) 17:37:57 29.400- 29.500
MaSat-1 23 Nov 17:44:22 17:45:58 14° 309° (NW) 17:47:30 437.345
PHONESAT 2.4 23 Nov 17:55:06 17:58:17 27° 170° (S) 18:01:29 2401.200-2431.200
PRISM 23 Nov 17:57:55 18:00:53 18° 92° (E) 18:03:48 437.425
Cubesat XI-IV 23 Nov 18:15:20 18:20:42 77° 256° (WSW) 18:26:06 437.490
VERMONT LUNAR 23 Nov 18:17:01 18:20:14 30° 177° (S) 18:23:28 437.305
JAS-2 23 Nov 18:21:52 18:28:36 34° 268° (W) 18:35:37 435.910
STRAND 1 23 Nov 18:23:37 18:26:27 15° 88° (E) 18:29:16 437.568
GONETS M04 23 Nov 18:30:28 18:37:25 25° 60° (ENE) 18:44:18
HO-68 23 Nov 18:51:25 18:56:32 22° 51° (NE) 19:01:39 435.675
CUBESAT XI-V 23 Nov 18:56:12 19:00:20 30° 95° (E) 19:04:24 437.345
CUTE-I 23 Nov 18:58:15 19:03:07 35° 264° (W) 19:08:01 437.470
MOZHAYETS 4 23 Nov 18:59:54 19:03:43 25° 295° (WNW) 19:07:31
RS-15 23 Nov 19:14:13 19:24:48 52° 322° (NW) 19:35:33 29.354- 29.394
PCSat 23 Nov 19:26:57 19:28:54 12° 102° (ESE) 19:30:50 145.827
PRISM 23 Nov 19:32:36 19:36:42 47° 290° (WNW) 19:40:45 437.425
PHONESAT 2.4 23 Nov 19:33:20 19:36:36 29° 187° (S) 19:39:52 2401.200-2431.200
CUTE 1.7 & AOD 2 23 Nov 19:35:04 19:37:42 16° 62° (ENE) 19:40:21 437.475
GOMX 1 23 Nov 19:45:20 19:48:21 17° 62° (ENE) 19:51:16 467.674
VERMONT LUNAR 23 Nov 19:55:16 19:58:14 23° 194° (SSW) 20:01:11 437.305
BRITE-PL 23 Nov 19:59:14 20:03:35 31° 68° (ENE) 20:07:40 437.365/2234.400
Cubesat XI-IV 23 Nov 20:00:19 20:01:41 11° 275° (W) 20:03:03 437.490
STRAND 1 23 Nov 20:01:07 20:06:16 78° 287° (WNW) 20:11:21 437.568
Oscar 11 23 Nov 20:04:07 20:05:56 13° 58° (ENE) 20:07:44 145.826/435.025
SEEDS 23 Nov 20:10:11 20:13:51 30° 68° (ENE) 20:17:33 437.485
CINEMA 3 23 Nov 20:11:27 20:13:37 14° 60° (ENE) 20:15:46 145.822/145.860
DX 1 23 Nov 20:22:22 20:25:24 19° 61° (ENE) 20:28:27 434.975-435.025
GONETS M04 23 Nov 20:26:34 20:35:28 86° 263° (W) 20:44:16
AIST 1 23 Nov 20:28:10 20:32:30 61° 95° (E) 20:36:53
AAUSAT CUBESAT 2 23 Nov 20:32:03 20:35:54 38° 70° (ENE) 20:39:48 437.432
CUBESAT XI-V 23 Nov 20:33:34 20:37:47 34° 293° (WNW) 20:41:57 437.345
CANX-2 23 Nov 20:33:58 20:38:09 66° 74° (ENE) 20:42:22 2200.000
HO-68 23 Nov 20:36:06 20:43:18 86° 71° (ENE) 20:50:33 435.675
VELOX 1 23 Nov 20:43:11 20:44:10 11° 56° (NE) 20:45:09 145.980
COMPASS 1 23 Nov 20:45:15 20:49:21 60° 73° (ENE) 20:53:29 437.405
ZACube-1 23 Nov 20:49:07 20:51:36 16° 62° (ENE) 20:54:04 437.345
DELFI C3 23 Nov 20:50:39 20:54:06 27° 67° (ENE) 20:57:35 145.870
DOVE 4 23 Nov 20:51:14 20:55:43 51° 72° (ENE) 20:59:58 437.250
HUMSAT D 23 Nov 20:53:22 20:54:14 11° 58° (ENE) 20:55:05 437.325/437.525
AISAT 23 Nov 21:05:34 21:08:32 18° 61° (ENE) 21:11:30 437.250
PCSat 23 Nov 21:05:58 21:11:22 77° 120° (ESE) 21:16:49 145.827
CUTE 1.7 & AOD 2 23 Nov 21:09:04 21:13:13 57° 260° (W) 21:17:24 437.475
PHONESAT 2.4 23 Nov 21:12:30 21:14:46 16° 203° (SSW) 21:17:02 2401.200-2431.200
GOMX 1 23 Nov 21:21:18 21:26:07 64° 259° (WSW) 21:30:36 467.674
BEESAT 3 23 Nov 21:21:31 21:25:28 46° 120° (ESE) 21:29:28 437.485
FUNcube-1 23 Nov 21:23:23 21:27:08 32° 68° (ENE) 21:30:51 145.935
UKube-1 23 Nov 21:23:52 21:28:11 69° 73° (ENE) 21:32:33 .
CUBEBUG 1 23 Nov 21:29:37 21:31:10 12° 57° (ENE) 21:32:42 437.445
RS-15 23 Nov 21:30:59 21:40:21 31° 355° (N) 21:49:56 29.354- 29.394
BEESAT 2 23 Nov 21:34:44 21:38:47 57° 122° (ESE) 21:42:54 435.950
CUBEBUG 2 23 Nov 21:37:05 21:41:17 59° 73° (ENE) 21:45:26 437.445
Oscar 11 23 Nov 21:37:10 21:41:28 83° 257° (WSW) 21:45:49 145.826/435.025
BRITE-PL 23 Nov 21:37:25 21:42:03 35° 263° (W) 21:46:23 437.365/2234.400
STRAND 1 23 Nov 21:42:20 21:44:37 13° 306° (NW) 21:46:54 437.568
UWE-3 23 Nov 21:42:38 21:46:48 59° 73° (ENE) 21:50:56 435.000/436.395/437.385
CINEMA 3 23 Nov 21:45:56 21:50:21 73° 258° (WSW) 21:54:38 145.822/145.860
SEEDS 23 Nov 21:46:07 21:49:42 27° 265° (W) 21:53:19 437.485
DX 1 23 Nov 21:56:59 22:01:16 54° 259° (W) 22:05:36 434.975-435.025
AIST 2 23 Nov 21:57:57 22:02:03 50° 121° (ESE) 22:06:13 435.215
ESTCUBE 1 23 Nov 22:05:59 22:09:45 26° 65° (ENE) 22:13:33 437.505/2401.250
AIST 1 23 Nov 22:08:01 22:10:38 15° 294° (WNW) 22:13:15
AAUSAT CUBESAT 2 23 Nov 22:08:34 22:11:45 21° 267° (W) 22:14:58 437.432
CANX-2 23 Nov 22:12:38 22:14:34 13° 271° (W) 22:16:31 2200.000
VELOX 1 23 Nov 22:15:30 22:19:59 77° 74° (ENE) 22:24:28 145.980
COMPASS 1 23 Nov 22:23:18 22:25:30 14° 271° (W) 22:27:43 437.405
ZACube-1 23 Nov 22:23:23 22:27:34 60° 259° (W) 22:31:43 437.345
GONETS M04 23 Nov 22:25:09 22:30:56 20° 285° (WNW) 22:36:42
HUMSAT D 23 Nov 22:25:15 22:29:23 89° 77° (ENE) 22:33:32 437.325/437.525
DELFI C3 23 Nov 22:25:48 22:29:22 29° 265° (W) 22:32:57 145.870
HO-68 23 Nov 22:26:52 22:31:53 20° 271° (W) 22:36:56 435.675
DOVE 4 23 Nov 22:30:32 22:33:45 18° 268° (W) 22:36:52 437.250
50 SAT 23 Nov 22:30:46 22:34:48 87° 75° (ENE) 22:38:52 437.505
POLYITAN 1 23 Nov 22:39:15 22:41:49 16° 91° (E) 22:44:23 437.675
AISAT 23 Nov 22:40:18 22:44:44 60° 259° (WSW) 22:49:11 437.250
QB50P2 23 Nov 22:42:09 22:44:55 17° 91° (E) 22:47:40 145.880/145.840
TIGRISAT 23 Nov 22:48:18 22:52:05 28° 95° (E) 22:55:54 435.000
DUCHIFAT 1 23 Nov 22:49:36 22:52:41 20° 92° (E) 22:55:45 145.980
PCSat 23 Nov 22:51:01 22:55:23 24° 321° (NW) 22:59:47 145.827
TISAT 1 23 Nov 22:59:24 23:02:48 23° 65° (ENE) 23:06:11 437.305
FUNcube-1 23 Nov 23:00:00 23:03:32 26° 265° (W) 23:07:03 145.935
UNISAT 6 23 Nov 23:00:20 23:04:26 37° 97° (E) 23:08:36 437.425
BEESAT 3 23 Nov 23:00:22 23:03:54 26° 320° (NW) 23:07:28 437.485
SPROUT 23 Nov 23:01:36 23:04:55 22° 64° (ENE) 23:08:13 437.525
CUBEBUG 1 23 Nov 23:02:22 23:06:50 86° 74° (ENE) 23:11:19 437.445
UKube-1 23 Nov 23:02:45 23:04:51 13° 271° (W) 23:06:56 .
NANOSAT C BR1 23 Nov 23:08:07 23:11:52 30° 96° (E) 23:15:35 145.865
BEESAT 2 23 Nov 23:14:03 23:17:24 23° 322° (NW) 23:20:48 435.950
AUBIESAT-1 23 Nov 23:14:30 23:16:42 14° 51° (NE) 23:18:59 437.475
CUBEBUG 2 23 Nov 23:16:04 23:18:23 14° 270° (W) 23:20:41 437.445
QB50P1 23 Nov 23:17:32 23:21:29 37° 98° (E) 23:25:24 145.935-145.965
M-CUBED/EXP-1 PRIME 23 Nov 23:17:33 23:20:06 16° 52° (NE) 23:22:46 437.505
UWE-3 23 Nov 23:21:27 23:23:45 14° 270° (W) 23:26:02 435.000/436.395/437.385
ANTELSAT 23 Nov 23:28:37 23:33:02 72° 102° (ESE) 23:37:31 437.575/2403.000
AIST 2 23 Nov 23:37:20 23:40:56 26° 321° (NW) 23:44:35 435.215
BUGSAT 1 23 Nov 23:41:01 23:45:05 55° 101° (E) 23:49:04 437.445
POPSAT HIP 1 23 Nov 23:41:50 23:46:04 69° 102° (ESE) 23:50:15 437.405
ESTCUBE 1 23 Nov 23:42:14 23:46:29 38° 263° (W) 23:50:45 437.505/2401.250
CUSAT 1 23 Nov 23:42:42 23:46:15 26° 74° (ENE) 23:50:43 437.405
RS-15 23 Nov 23:46:13 23:56:32 41° 29° (NNE) 00:07:10 29.354- 29.394
VELOX 1 23 Nov 23:55:16 23:57:07 12° 272° (W) 23:58:59 145.980
DANDE 23 Nov 23:57:47 00:01:19 29° 75° (ENE) 00:05:51 436.750
ISS 24 Nov 00:10:45 00:12:20 13° 134° (SE) 00:13:56 145.825
POLYITAN 1 24 Nov 00:13:59 00:18:08 54° 288° (WNW) 00:22:15 437.675
ITUPSAT 1 24 Nov 00:14:55 00:18:50 25° 63° (ENE) 00:22:45 437.325
QB50P2 24 Nov 00:17:02 00:21:09 50° 289° (WNW) 00:25:14 145.880/145.840
DUCHIFAT 1 24 Nov 00:24:46 00:28:47 43° 290° (WNW) 00:32:45 145.980
TIGRISAT 24 Nov 00:24:57 00:28:52 33° 292° (WNW) 00:32:51 435.000
SWISSCUBE 24 Nov 00:26:20 00:30:39 34° 66° (ENE) 00:34:58 437.505
TISAT 1 24 Nov 00:34:27 00:38:27 38° 262° (W) 00:42:28 437.305
SPROUT 24 Nov 00:36:39 00:40:46 42° 262° (W) 00:44:54 437.525
UNISAT 6 24 Nov 00:37:29 00:41:06 26° 295° (WNW) 00:44:47 437.425
CUBEBUG 1 24 Nov 00:42:43 00:43:50 11° 273° (W) 00:44:57 437.445
NANOSAT C BR1 24 Nov 00:44:05 00:47:42 28° 294° (WNW) 00:51:18 145.865
AUBIESAT-1 24 Nov 00:46:57 00:50:59 84° 251° (WSW) 00:55:28 437.475
M-CUBED/EXP-1 PRIME 24 Nov 00:50:32 00:54:33 71° 253° (WSW) 00:58:59 437.505
QB50P1 24 Nov 00:53:52 00:57:12 23° 295° (WNW) 01:00:32 145.935-145.965
BEESAT 24 Nov 00:57:27 01:02:10 60° 71° (ENE) 01:06:54 436.000
ANTELSAT 24 Nov 01:06:53 01:09:20 15° 300° (WNW) 01:11:49 437.575/2403.000
BUGSAT 1 24 Nov 01:17:38 01:20:10 16° 299° (WNW) 01:22:41 437.445
POPSAT HIP 1 24 Nov 01:19:13 01:21:28 14° 300° (WNW) 01:23:42 437.405
CUSAT 1 24 Nov 01:25:27 01:29:22 36° 263° (W) 01:34:29 437.405
STARS 24 Nov 01:27:46 01:30:56 20° 62° (ENE) 01:34:07 437.465
Oscar 19 24 Nov 01:40:30 01:45:06 32° 95° (E) 01:49:41 437.125/150
DANDE 24 Nov 01:41:09 01:44:47 30° 264° (W) 01:49:26 436.750
MaSat-1 24 Nov 01:44:47 01:46:59 40° 245° (WSW) 01:49:14 437.345
ISS 24 Nov 01:45:13 01:48:30 75° 151° (SSE) 01:51:48 145.825
YUBILEINY 24 Nov 01:47:46 01:53:52 22° 77° (ENE) 01:59:57 435.215
ITUPSAT 1 24 Nov 01:51:54 01:56:30 44° 261° (W) 02:01:08 437.325
RS-15 24 Nov 01:59:01 02:10:14 85° 236° (SW) 02:21:56 29.354- 29.394
KKS-1 24 Nov 02:02:02 02:06:24 58° 72° (ENE) 02:10:47 437.445
SWISSCUBE 24 Nov 02:04:14 02:08:30 32° 264° (W) 02:12:49 437.505
ITAMSAT 1 24 Nov 02:28:22 02:33:05 34° 96° (E) 02:37:44 435.822/435.867
BEESAT 24 Nov 02:37:12 02:40:25 18° 269° (W) 02:43:39 436.000
Gurwin Techsat 1B 24 Nov 02:47:08 02:51:49 31° 95° (E) 02:56:27 435.225
STARS 24 Nov 03:02:49 03:07:06 50° 260° (W) 03:11:24 437.465
HORYU 2 24 Nov 03:07:07 03:10:22 19° 92° (E) 03:13:37 437.375
Oscar 19 24 Nov 03:19:45 03:24:29 38° 294° (WNW) 03:29:13 437.125/150
ISS 24 Nov 03:22:15 03:25:21 37° 350° (N) 03:28:27 145.825
AO-7 24 Nov 03:29:05 03:34:24 18° 87° (E) 03:39:41 29.400- 29.500
YUBILEINY 24 Nov 03:40:37 03:49:27 89° 278° (W) 03:58:18 435.215
KKS-1 24 Nov 03:40:38 03:43:25 16° 269° (W) 03:46:14 437.445
BEESAT 3 24 Nov 04:01:30 04:04:05 16° 31° (NNE) 04:06:39 437.485
SO-50 24 Nov 04:05:22 04:08:41 20° 112° (ESE) 04:12:04 436.795
ITAMSAT 1 24 Nov 04:07:52 04:12:34 36° 295° (WNW) 04:17:14 435.822/435.867
PCSat 24 Nov 04:08:13 04:12:41 25° 39° (NE) 04:17:07 145.827
RS-15 24 Nov 04:12:43 04:21:04 25° 258° (WSW) 04:29:42 29.354- 29.394
BEESAT 2 24 Nov 04:14:56 04:17:49 18° 34° (NNE) 04:20:42 435.950
Gurwin Techsat 1B 24 Nov 04:26:55 04:31:53 41° 293° (WNW) 04:36:49 435.225
MOZHAYETS 4 24 Nov 04:27:03 04:31:31 53° 71° (ENE) 04:36:02
AIST 2 24 Nov 04:39:30 04:42:24 17° 32° (NNE) 04:45:16 435.215
HORYU 2 24 Nov 04:42:59 04:47:19 49° 290° (WNW) 04:51:39 437.375
PRISM 24 Nov 04:51:48 04:54:59 21° 63° (ENE) 04:58:12 437.425
ISS 24 Nov 04:59:20 05:02:28 38° 11° (N) 05:05:36 145.825
AO-7 24 Nov 05:20:04 05:28:29 80° 108° (ESE) 05:36:52 29.400- 29.500
JAS-2 24 Nov 05:28:19 05:35:11 42° 94° (E) 05:41:17 435.910
CUTE-I 24 Nov 05:35:09 05:36:09 11° 85° (E) 05:37:09 437.470
BEESAT 3 24 Nov 05:38:49 05:43:03 75° 52° (NE) 05:47:13 437.485
YUBILEINY 24 Nov 05:40:59 05:47:36 23° 301° (WNW) 05:54:15 435.215
STRAND 1 24 Nov 05:41:43 05:46:09 30° 64° (ENE) 05:50:36 437.568
SO-50 24 Nov 05:44:18 05:48:48 59° 311° (NW) 05:53:28 436.795
PCSat 24 Nov 05:51:13 05:56:39 74° 240° (WSW) 06:02:02 145.827
BEESAT 2 24 Nov 05:52:29 05:56:44 90° 238° (WSW) 06:00:55 435.950
CUBESAT XI-V 24 Nov 06:02:23 06:06:47 41° 69° (ENE) 06:11:14 437.345
MOZHAYETS 4 24 Nov 06:05:53 06:09:05 19° 269° (W) 06:12:19
AIST 2 24 Nov 06:17:22 06:21:43 83° 53° (NE) 06:26:00 435.215
PRISM 24 Nov 06:26:18 06:30:18 42° 261° (W) 06:34:21 437.425
Cubesat XI-IV 24 Nov 06:30:02 06:34:53 34° 96° (E) 06:39:40 437.490
AIST 1 24 Nov 06:33:11 06:36:36 22° 69° (ENE) 06:39:59
ISS 24 Nov 06:36:00 06:39:17 68° 210° (SSW) 06:42:34 145.825
